Location: Burera
(21.3780°N, 81.9534°E)
Time: 12:05:35
(UTC+00:00)

Cosmos 1805 Rocket - Pass Details

Date: 13 August 2020
Orbit: 605 x 631 km, 82.5° (Epoch: 21 September)

Event Time Altitude Azimuth Distance (km) Brightness Sun altitude
Rises 13:42:20 0° 171° (S) 2,881 6.7 -9.4°
Reaches altitude 10° 13:44:37 10° 165° (SSE) 1,982 5.8 -9.9°
Maximum altitude 13:48:49 46° 92° (E) 842 3.8 -10.8°
Drops below altitude 10° 13:53:03 10° 20° (NNE) 2,001 6.2 -11.7°
Sets 13:55:21 0° 14° (NNE) 2,913 7.1 -12.2°
